Date,TemperatureHighF,TemperatureAvgF,TemperatureLowF,DewpointHighF,DewpointAvgF,DewpointLowF,HumidityHigh,HumidityAvg,HumidityLow,PressureMaxIn,PressureMinIn,WindSpeedMaxMPH,WindSpeedAvgMPH,GustSpeedMaxMPH,PrecipitationSumIn
2013-1-1,53.6,42.0,34.8,40.1,33.8,29.0,94,75,42,30.12,30.04,10,1,10,0.00
2013-1-2,59.8,42.6,31.5,39.1,33.5,28.1,91,72,42,30.09,29.99,7,0,7,0.00
2013-1-3,58.2,42.4,31.0,39.8,34.4,28.7,93,75,44,30.10,30.01,5,0,5,0.00
2013-1-4,57.7,42.4,32.6,43.5,36.8,30.5,94,82,58,30.13,30.03,7,0,7,0.00
2013-1-5,54.4,44.7,35.1,44.3,40.2,33.0,95,85,66,30.11,29.93,8,0,8,0.12
2013-1-6,52.3,45.8,38.8,46.9,43.0,37.4,97,90,74,30.02,29.92,8,0,10,0.29
2013-1-7,49.4,40.8,33.4,44.5,38.9,32.2,97,93,83,30.10,29.96,11,1,11,0.01
2013-1-8,58.6,45.3,36.4,46.6,41.0,35.4,97,86,61,30.09,29.98,6,0,7,0.01
2013-1-9,51.0,45.6,40.8,46.8,42.4,37.2,99,89,80,30.02,29.76,13,1,13,0.05
2013-1-10,50.8,40.1,31.9,40.7,34.1,29.3,96,80,50,29.98,29.85,7,1,14,0.00
2013-1-11,51.3,37.7,27.9,35.7,30.2,26.0,95,76,44,30.06,29.96,6,0,6,0.01
2013-1-12,50.4,37.0,26.0,31.6,25.5,19.2,92,66,33,30.07,29.98,6,0,8,0.00
2013-1-13,49.2,35.6,24.3,29.5,24.9,17.2,93,67,43,30.09,29.99,11,1,13,0.00
2013-1-14,53.1,37.6,24.2,28.8,22.2,16.0,80,56,27,30.24,30.02,7,0,8,0.00
2013-1-15,54.5,39.8,29.8,34.2,30.1,25.3,84,70,45,30.33,30.23,6,0,7,0.00
2013-1-16,61.6,43.2,30.3,37.5,32.6,27.5,91,69,35,30.27,30.12,6,0,7,0.00
2013-1-17,65.1,45.2,30.7,37.8,32.8,27.1,89,65,33,30.13,30.01,4,0,6,0.00
2013-1-18,65.9,46.5,32.8,38.0,33.5,27.8,84,64,31,30.08,29.98,7,0,7,0.00
2013-1-19,64.9,47.6,36.0,38.4,34.4,29.8,85,63,35,30.11,30.00,7,0,8,0.00
2013-1-20,67.3,47.7,34.4,37.9,34.3,29.1,83,63,31,30.07,29.96,5,0,6,0.00
2013-1-21,64.5,47.2,34.9,41.3,36.3,29.1,86,68,39,30.03,29.95,6,1,7,0.00
2013-1-22,68.5,49.8,34.7,43.0,37.8,29.6,84,66,34,29.99,29.86,7,0,7,0.00
2013-1-23,61.9,51.4,44.8,48.7,42.7,35.4,94,73,48,29.93,29.81,9,1,10,0.03
2013-1-24,55.8,51.6,47.9,53.8,50.0,46.6,96,94,90,30.02,29.89,9,1,10,0.12
2013-1-25,69.0,57.4,52.0,59.3,53.5,50.8,100,88,63,30.02,29.86,10,1,11,0.06
2013-1-26,59.5,52.1,44.0,52.9,47.5,39.9,97,85,51,29.87,29.77,15,2,17,0.01
2013-1-27,56.2,45.6,37.4,43.2,38.2,33.1,94,77,52,29.98,29.84,8,1,10,0.03
2013-1-28,57.1,44.5,31.7,37.6,34.8,29.6,95,71,45,30.08,29.95,14,1,17,0.00
2013-1-29,58.7,46.0,35.8,40.8,36.9,33.2,92,73,46,30.16,30.06,16,2,17,0.00
2013-1-30,62.8,48.4,36.0,45.4,40.4,33.4,94,76,52,30.18,30.09,8,1,9,0.00
2013-1-31,69.4,51.7,38.2,47.2,42.4,36.1,93,73,43,30.14,30.02,6,0,8,0.00
2013-2-1,71.5,52.3,36.7,47.5,42.2,34.6,94,72,40,30.06,29.96,7,0,7,0.00
2013-2-2,68.7,52.0,43.5,50.0,43.6,39.2,90,75,44,30.11,30.02,4,0,5,0.00
2013-2-3,66.3,49.9,38.7,50.1,43.2,36.7,96,80,50,30.06,29.94,8,0,8,0.00
2013-2-4,65.5,51.2,40.3,49.4,44.1,38.0,94,78,54,30.00,29.88,10,0,10,0.00
2013-2-5,55.1,46.7,39.2,46.5,42.4,37.5,97,85,68,29.96,29.87,10,1,10,0.01
2013-2-6,63.0,48.2,35.6,44.3,39.4,33.3,94,74,40,30.00,29.93,7,1,8,0.00
2013-2-7,55.2,46.5,40.7,45.4,40.2,34.8,93,79,56,29.99,29.82,11,2,12,0.02
2013-2-8,57.4,46.1,36.6,41.6,34.7,27.2,92,67,41,29.82,29.73,17,2,18,0.00
2013-2-9,56.8,43.9,30.8,39.3,33.1,25.8,84,67,45,29.92,29.77,9,1,11,0.00
2013-2-10,59.7,46.0,34.7,39.4,35.3,31.0,88,69,42,29.96,29.83,12,1,12,0.00
2013-2-11,61.2,46.2,32.3,40.2,34.7,28.3,87,66,41,30.07,29.88,6,1,8,0.00
2013-2-12,65.0,49.0,37.4,40.5,35.8,31.9,82,63,36,30.20,30.07,6,0,6,0.00
2013-2-13,65.0,50.0,38.8,42.6,38.4,33.8,83,66,41,30.16,30.03,7,0,7,0.00
2013-2-14,67.6,51.9,36.8,47.2,41.8,33.9,91,71,44,30.08,29.99,7,0,8,0.00
2013-2-15,73.8,55.7,42.0,46.6,42.6,36.7,89,65,33,30.12,30.04,3,0,6,0.00
2013-2-16,72.3,54.6,44.8,44.2,40.0,34.1,81,60,32,30.08,29.85,6,0,6,0.00
2013-2-17,68.6,53.1,40.2,45.7,40.5,34.5,85,65,43,29.85,29.77,10,1,10,0.00
2013-2-18,60.6,48.4,38.2,46.8,40.6,35.8,92,75,58,29.84,29.73,13,2,14,0.00
2013-2-19,47.0,42.1,35.8,41.7,38.0,34.0,94,85,77,29.77,29.56,16,3,17,0.33
2013-2-20,60.4,43.6,29.0,41.9,33.4,27.8,96,72,35,29.86,29.64,16,2,16,0.00
2013-2-21,60.9,48.1,37.7,41.0,35.3,30.8,89,64,35,29.97,29.85,15,2,17,0.00
2013-2-22,61.8,48.6,34.4,42.1,36.9,30.6,89,66,44,30.07,29.97,9,1,9,0.00
2013-2-23,60.4,51.4,45.0,45.4,34.8,21.0,90,57,30,30.05,29.96,20,4,20,0.00
2013-2-24,65.8,49.9,36.1,33.2,28.8,21.1,69,46,25,30.07,29.99,12,2,12,0.00
2013-2-25,66.8,53.8,42.4,40.1,34.7,30.4,70,50,30,30.09,29.98,10,1,15,0.00
2013-2-26,66.9,51.2,36.7,34.3,31.2,27.5,82,50,24,30.02,29.93,21,4,22,0.00
2013-2-27,69.7,52.4,36.7,43.5,34.7,25.1,74,52,30,30.17,30.02,9,0,9,0.00
2013-2-28,74.0,58.4,45.2,43.1,39.8,34.9,74,52,30,30.25,30.17,12,1,12,0.00
2013-3-1,76.6,58.2,41.4,48.8,43.9,37.9,88,62,34,30.24,30.08,7,0,7,0.00
2013-3-2,73.7,61.0,49.6,50.7,47.2,43.4,81,62,41,30.08,29.89,6,0,6,0.00
2013-3-3,64.5,57.7,50.1,53.7,49.8,46.2,87,75,65,29.91,29.83,11,1,11,0.00
2013-3-4,67.2,52.3,42.7,52.5,46.5,41.0,96,82,56,29.96,29.85,8,1,8,0.00
2013-3-5,64.1,52.0,43.7,44.8,41.8,33.7,90,70,41,29.88,29.68,12,2,12,0.06
2013-3-6,58.4,50.6,46.2,47.1,42.5,38.7,92,75,49,29.90,29.68,18,4,22,0.31
2013-3-7,60.2,49.4,38.0,43.8,40.3,35.7,94,72,47,29.83,29.68,8,0,9,0.00
2013-3-8,68.1,51.8,37.7,45.6,40.5,35.2,93,68,33,29.85,29.63,11,1,11,0.00
2013-3-9,69.8,54.5,38.9,45.6,38.7,33.0,95,60,27,30.10,29.85,16,2,20,0.00
2013-3-10,67.8,53.4,38.9,47.5,40.8,32.3,82,64,44,30.18,30.08,9,1,10,0.00
2013-3-11,74.5,57.8,42.8,48.0,44.6,38.9,87,64,36,30.08,29.92,7,0,8,0.00
2013-3-12,78.8,61.8,45.1,50.8,47.2,41.0,88,62,35,29.98,29.89,8,0,9,0.00
2013-3-13,80.8,64.3,48.7,54.4,50.1,45.1,88,63,36,30.00,29.90,10,0,10,0.00
2013-3-14,80.9,63.8,51.6,55.6,50.7,44.5,85,65,37,29.97,29.89,7,0,7,0.00
2013-3-15,79.2,62.1,49.6,53.3,49.3,46.2,92,67,36,29.92,29.83,10,0,10,0.00
2013-3-16,78.5,61.3,45.2,53.4,46.0,38.0,95,62,26,29.89,29.80,10,1,11,0.00
2013-3-17,73.2,58.3,41.5,45.5,41.8,37.9,89,58,32,29.94,29.83,11,1,11,0.00
2013-3-18,71.8,58.3,43.9,47.0,41.8,38.0,82,57,33,29.92,29.84,7,0,7,0.00
2013-3-19,72.5,59.5,48.3,52.2,46.5,43.1,93,65,37,29.97,29.87,8,1,10,0.18
2013-3-20,62.2,56.0,51.5,57.1,53.4,49.3,96,91,77,29.94,29.89,11,1,11,0.44
2013-3-21,67.1,55.1,47.4,52.7,44.7,29.9,96,72,28,29.93,29.81,15,2,16,0.01
2013-3-22,65.7,53.5,41.8,38.9,30.2,21.2,73,44,20,29.89,29.82,21,5,27,0.00
2013-3-23,70.8,54.0,39.2,39.5,33.3,28.4,72,49,21,29.96,29.85,8,1,9,0.00
2013-3-24,77.2,59.5,43.9,44.7,39.4,35.0,72,51,25,29.91,29.77,7,0,8,0.00
2013-3-25,71.3,57.3,44.1,50.1,44.6,39.7,88,64,42,29.82,29.72,11,1,11,0.00
2013-3-26,73.7,58.0,42.9,51.1,46.0,40.1,91,66,40,29.81,29.74,8,1,10,0.00
2013-3-27,72.5,55.5,47.8,54.1,47.5,43.5,86,76,51,29.80,29.75,9,1,11,0.00
2013-3-28,72.6,61.8,55.1,55.3,51.3,49.9,85,70,48,29.92,29.84,4,1,9,0.00
2013-3-29,82.3,65.1,47.9,52.9,48.8,44.4,90,60,29,29.92,29.83,2,0,9,0.00
2013-3-30,77.3,63.4,50.7,56.3,50.9,46.0,86,65,42,29.86,29.78,4,1,11,0.00
2013-3-31,72.0,59.1,53.4,56.8,52.2,48.1,97,80,46,29.92,29.80,6,1,16,0.93
2013-4-1,72.3,59.6,51.1,54.4,51.1,48.5,95,76,46,29.98,29.88,10,0,11,0.01
2013-4-2,75.2,60.4,46.0,55.2,49.8,43.5,93,71,43,29.99,29.88,12,1,12,0.00
2013-4-3,79.5,62.9,47.9,55.2,51.4,45.4,94,70,41,29.95,29.79,5,0,7,0.00
2013-4-4,65.7,57.9,52.1,59.2,53.3,45.9,95,85,66,29.94,29.80,12,1,12,0.38
2013-4-5,69.0,60.0,52.7,53.8,51.9,50.1,94,76,53,29.99,29.92,10,1,10,0.00
2013-4-6,68.0,58.1,50.0,56.5,52.0,47.5,92,81,62,30.01,29.92,10,1,11,0.00
2013-4-7,68.3,57.9,50.1,56.1,50.4,45.1,92,77,61,29.97,29.63,15,3,16,0.00
2013-4-8,69.9,57.2,47.3,48.6,39.8,31.1,93,57,24,29.81,29.55,28,5,28,0.02
2013-4-9,74.7,61.3,46.1,41.6,37.1,34.6,66,43,26,29.90,29.81,27,4,27,0.00
2013-4-10,87.3,69.8,52.7,56.4,45.2,34.8,74,43,27,30.00,29.79,11,1,11,0.00
2013-4-11,80.5,67.1,53.4,55.0,48.0,40.5,87,54,26,29.81,29.63,16,2,16,0.00
2013-4-12,83.4,60.8,47.7,54.9,47.0,40.2,85,64,23,29.72,29.61,5,0,7,0.00
2013-4-13,77.2,62.3,48.6,54.7,49.3,43.4,82,64,43,29.69,29.59,3,1,10,0.00
2013-4-14,77.0,60.6,44.8,48.8,42.2,31.9,92,57,20,29.72,29.56,5,2,13,0.00
2013-4-15,65.2,53.1,43.8,47.8,44.7,40.4,92,74,47,29.72,29.63,14,2,16,0.05
2013-4-16,68.7,54.1,39.6,40.8,33.3,24.5,91,52,21,29.97,29.72,22,3,23,0.01
2013-4-17,70.7,58.8,48.2,33.5,29.2,24.4,55,34,21,30.05,29.97,23,4,23,0.00
2013-4-18,78.7,61.4,42.8,42.0,33.9,27.0,64,38,17,30.09,30.00,8,1,10,0.00
2013-4-19,83.9,66.5,48.0,48.5,44.1,39.5,78,48,26,30.06,29.87,13,1,14,0.00
2013-4-20,83.3,67.8,52.1,49.7,44.0,33.2,80,47,17,29.90,29.78,15,2,15,0.00
2013-4-21,88.3,69.8,49.6,51.5,46.0,38.3,80,47,19,29.84,29.75,11,1,11,0.00
2013-4-22,90.2,71.9,54.9,52.5,45.1,35.2,76,43,17,29.78,29.66,15,2,16,0.00
2013-4-23,87.0,69.9,54.0,47.1,37.1,31.2,57,33,15,29.74,29.65,12,1,13,0.00
2013-4-24,92.7,70.7,51.2,52.1,43.0,33.6,74,44,13,29.69,29.56,12,2,16,0.00
2013-4-25,76.2,62.3,50.1,52.7,49.6,46.2,89,66,40,29.92,29.70,12,3,14,0.00
2013-4-26,84.7,64.5,47.2,54.4,50.1,44.4,91,64,32,30.03,29.92,8,1,10,0.00
2013-4-27,91.0,69.7,50.0,57.0,52.1,46.6,88,58,29,30.02,29.85,7,0,8,0.00
2013-4-28,93.7,73.6,52.8,55.8,51.8,47.4,86,52,23,29.85,29.68,9,1,9,0.00
2013-4-29,92.0,75.4,58.6,58.0,52.1,44.7,80,49,20,29.70,29.56,14,1,15,0.00
2013-4-30,86.0,72.0,60.2,54.6,39.3,26.2,72,35,14,29.65,29.56,21,3,21,0.00
2013-5-1,91.3,73.3,55.7,42.5,33.1,25.6,40,24,12,29.90,29.65,15,2,15,0.00
2013-5-2,94.6,76.1,56.3,45.7,37.1,21.3,51,27,12,29.98,29.88,8,1,12,0.00
2013-5-3,94.2,76.0,55.9,51.1,45.0,38.8,71,37,15,29.88,29.60,11,1,13,0.00
2013-5-4,92.8,76.6,61.1,49.8,43.3,34.7,61,34,14,29.60,29.32,12,1,14,0.00
2013-5-5,74.0,59.6,52.6,50.6,48.4,46.8,83,68,41,29.55,29.39,9,1,12,0.00
2013-5-6,73.8,64.5,57.4,56.4,52.4,48.1,87,66,45,29.78,29.64,11,1,13,0.04
2013-5-7,74.4,64.6,57.3,55.4,52.9,50.6,88,67,46,29.84,29.78,8,1,8,0.00
2013-5-8,78.5,65.4,56.0,55.4,51.9,48.6,90,64,38,29.93,29.84,9,2,10,0.02
2013-5-9,76.7,58.1,50.4,56.6,50.9,47.8,92,78,48,29.95,29.89,5,1,7,0.00
2013-5-10,88.6,69.1,52.0,60.7,54.9,48.9,90,64,37,29.98,29.86,8,1,8,0.00
2013-5-11,96.2,77.7,57.5,62.8,57.7,52.1,84,54,31,29.92,29.83,8,0,9,0.00
2013-5-12,98.1,81.6,60.9,58.3,51.0,41.2,81,40,16,29.93,29.80,10,1,10,0.00
2013-5-13,65.9,62.0,58.0,52.1,48.4,46.4,68,61,56,29.84,29.81,6,0,6,0.00
2013-5-14,91.7,73.8,56.8,58.2,53.9,48.8,83,53,29,29.74,29.67,5,1,13,0.00
2013-5-15,81.3,67.1,54.2,50.9,47.6,44.1,69,52,32,29.83,29.75,5,2,15,0.00
2013-5-16,74.6,63.1,56.0,55.2,50.8,47.3,77,65,43,29.82,29.73,6,3,17,0.00
2013-5-17,79.4,63.5,49.0,53.0,45.3,39.8,88,55,27,29.87,29.76,11,2,12,0.00
2013-5-18,84.7,67.8,46.9,50.0,45.3,38.8,81,49,21,29.93,29.85,11,1,11,0.00
2013-5-19,85.8,71.5,55.8,51.8,47.5,43.8,77,46,24,29.91,29.77,20,3,20,0.00
2013-5-20,94.1,76.1,56.0,49.8,43.8,27.7,70,37,12,29.81,29.70,8,1,10,0.00
2013-5-21,84.0,69.3,56.0,49.7,44.7,39.8,66,43,21,29.75,29.67,19,3,19,0.00
2013-5-22,74.5,60.9,47.8,45.7,31.2,22.1,68,36,15,29.79,29.68,17,3,17,0.00
2013-5-23,77.5,61.7,45.7,45.2,39.7,32.3,77,49,22,29.80,29.70,12,1,12,0.00
2013-5-24,83.3,64.8,46.1,46.7,41.0,32.3,80,46,21,29.82,29.72,10,1,10,0.00
2013-5-25,81.0,63.9,48.3,48.7,44.5,40.2,76,52,26,29.83,29.75,11,2,12,0.00
2013-5-26,81.6,64.5,50.9,53.2,49.2,45.3,84,61,30,29.91,29.82,13,2,15,0.00
2013-5-27,67.0,60.1,51.9,55.4,50.5,46.3,93,71,57,29.92,29.82,11,2,12,0.08
2013-5-28,81.0,67.3,56.8,58.6,54.7,50.1,94,68,37,29.82,29.70,9,1,12,0.01
2013-5-29,84.6,69.0,56.2,57.0,53.0,47.3,90,60,30,29.76,29.67,8,2,10,0.04
2013-5-30,88.3,71.0,51.9,56.0,49.6,38.3,88,52,20,29.77,29.71,12,1,12,0.00
2013-5-31,94.3,75.0,53.5,52.0,48.0,43.4,83,44,20,29.80,29.69,14,2,15,0.00
2013-6-1,99.9,78.8,60.1,56.4,49.7,44.0,69,40,15,29.71,29.55,6,0,10,0.00
2013-6-2,101.2,81.1,60.4,56.8,52.5,47.6,75,41,17,29.56,29.43,8,0,9,0.00
2013-6-3,97.4,75.6,59.1,59.0,54.0,49.8,73,50,26,29.62,29.49,10,1,11,0.00
2013-6-4,86.3,68.4,55.0,58.0,53.7,49.9,84,62,37,29.72,29.61,11,3,12,0.00
2013-6-5,91.5,70.5,53.8,59.9,54.4,49.5,86,60,33,29.79,29.66,9,2,10,0.00
2013-6-6,96.9,74.6,54.5,62.7,56.1,49.7,86,56,31,29.73,29.60,9,1,11,0.00
2013-6-7,106.0,83.0,59.8,68.4,58.1,50.6,78,48,19,29.66,29.50,11,1,12,0.00
2013-6-8,110.5,89.4,69.2,65.9,59.3,53.7,65,40,21,29.54,29.43,13,1,13,0.00
2013-6-9,82.9,70.4,61.7,58.8,55.7,53.2,76,61,41,29.67,29.52,16,4,17,0.00
2013-6-10,78.2,65.4,57.1,55.6,53.4,51.9,85,67,42,29.76,29.64,15,2,17,0.00
2013-6-11,89.7,72.2,54.6,58.0,54.1,49.7,85,57,33,29.79,29.68,9,1,9,0.00
2013-6-12,91.9,74.7,56.7,55.0,50.2,42.5,81,47,19,29.77,29.70,11,1,12,0.00
2013-6-13,88.4,72.1,53.8,50.5,43.5,30.9,69,41,14,29.88,29.77,14,1,14,0.00
2013-6-14,92.0,75.2,56.6,47.8,44.2,38.1,61,36,18,29.78,29.62,9,1,12,0.00
2013-6-15,93.7,74.7,55.7,52.8,46.7,39.3,76,42,16,29.76,29.62,10,1,12,0.00
2013-6-16,95.3,75.1,55.3,54.5,49.5,44.8,77,45,19,29.85,29.75,11,1,13,0.00
2013-6-17,91.7,72.8,56.4,54.3,50.8,47.6,74,49,23,29.85,29.77,13,2,13,0.00
2013-6-18,81.6,66.5,54.9,53.4,50.5,46.9,86,59,31,29.82,29.72,14,3,16,0.00
2013-6-19,82.6,67.9,52.0,50.5,44.3,32.3,82,49,18,29.86,29.78,12,1,16,0.00
2013-6-20,88.5,71.4,51.4,51.9,46.2,36.8,81,45,18,29.79,29.71,11,1,12,0.00
2013-6-21,92.2,75.0,54.0,51.4,47.8,44.2,79,42,21,29.76,29.69,13,1,13,0.00
2013-6-22,97.8,77.9,56.3,54.2,47.8,35.3,78,40,13,29.72,29.60,11,1,12,0.00
2013-6-23,78.0,68.0,59.9,60.4,55.4,45.7,84,65,45,29.68,29.60,14,3,16,0.00
2013-6-24,69.8,63.7,61.2,62.6,59.8,57.1,96,87,72,29.75,29.61,8,1,9,0.27
2013-6-25,76.0,68.0,62.1,68.8,64.2,60.7,97,88,73,29.82,29.72,11,1,13,0.23
2013-6-26,91.8,76.6,61.4,66.7,62.8,58.4,96,66,39,29.86,29.78,12,1,12,0.00
2013-6-27,99.8,81.4,62.5,66.8,61.8,57.1,89,56,26,29.88,29.79,11,1,11,0.00
2013-6-28,107.0,87.6,66.1,67.6,62.5,55.4,86,49,19,29.82,29.67,11,1,11,0.00
2013-6-29,108.5,91.1,70.2,68.7,62.4,52.6,75,42,19,29.70,29.57,12,1,12,0.00
2013-6-30,110.1,91.0,69.8,64.4,60.8,55.1,72,41,18,29.62,29.52,7,1,7,0.00
2013-7-1,109.9,90.5,69.4,67.5,61.0,54.0,70,41,18,29.63,29.56,8,1,10,0.00
2013-7-2,106.8,90.5,76.2,66.4,61.7,53.5,62,40,23,29.69,29.58,12,2,13,0.00
2013-7-3,108.6,88.5,70.6,67.5,61.8,54.2,64,43,24,29.69,29.53,13,1,13,0.00
2013-7-4,111.3,91.7,75.1,69.2,63.9,57.6,64,43,18,29.54,29.42,11,1,11,0.00
2013-7-5,93.0,79.5,66.5,58.9,53.4,46.4,60,41,29,29.55,29.46,11,3,12,0.00
2013-7-6,94.8,74.1,57.3,59.6,53.6,48.8,83,53,28,29.59,29.51,10,1,10,0.00
2013-7-7,99.3,79.0,59.1,58.6,50.2,36.0,74,41,17,29.63,29.55,8,1,9,0.00
2013-7-8,99.3,78.9,58.5,57.5,47.2,36.6,76,37,14,29.76,29.63,9,1,10,0.00
2013-7-9,105.3,84.4,62.3,54.9,48.3,40.5,59,32,15,29.83,29.71,10,1,10,0.00
2013-7-10,103.3,83.3,64.3,57.5,48.7,40.6,58,33,15,29.75,29.65,10,1,10,0.00
2013-7-11,95.8,76.1,57.3,52.2,47.8,35.2,73,41,14,29.71,29.63,8,2,12,0.00
2013-7-12,93.8,74.6,54.7,56.1,52.3,44.8,86,51,20,29.73,29.65,8,1,10,0.00
2013-7-13,100.4,80.3,58.6,55.4,48.8,39.9,73,39,13,29.76,29.68,9,1,10,0.00
2013-7-14,100.3,80.0,60.0,56.8,50.5,45.9,63,39,18,29.77,29.65,8,1,8,0.00
2013-7-15,92.3,72.9,56.7,56.7,50.5,42.3,80,49,20,29.69,29.59,11,2,12,0.00
2013-7-16,84.3,66.8,54.8,54.9,52.8,50.3,89,65,34,29.77,29.65,12,2,12,0.00
2013-7-17,95.1,73.8,53.7,58.3,52.9,39.1,91,56,16,29.89,29.79,2,0,9,0.00
2013-7-18,100.5,79.4,56.5,57.8,51.0,41.2,84,45,14,29.85,29.70,3,1,10,0.00
2013-7-19,104.0,83.4,58.9,59.5,53.6,46.5,73,39,18,29.72,29.57,6,1,9,0.00
2013-7-20,104.0,83.2,62.7,61.7,56.4,52.0,71,43,22,29.63,29.47,7,1,8,0.00
2013-7-21,99.3,81.2,63.9,60.9,54.5,47.3,69,42,24,29.67,29.53,11,2,13,0.00
2013-7-22,96.9,79.3,64.1,56.9,51.7,37.1,72,42,16,29.76,29.67,11,1,15,0.00
2013-7-23,95.8,80.4,67.9,55.5,49.3,35.6,52,35,16,29.80,29.68,11,2,12,0.00
2013-7-24,101.8,83.3,63.9,62.0,53.9,43.7,58,38,24,29.77,29.66,9,1,12,0.00
2013-7-25,103.5,84.6,67.7,63.5,56.9,52.5,61,41,26,29.77,29.69,9,1,11,0.00
2013-7-26,100.0,80.8,64.6,61.1,55.8,51.6,65,44,27,29.86,29.74,12,2,12,0.00
2013-7-29,87.4,69.4,54.3,56.9,53.2,50.1,89,60,33,29.80,29.62,4,1,11,0.00
2013-7-30,94.4,72.5,54.2,59.5,53.7,43.5,89,57,23,29.89,29.78,3,1,9,0.00
2013-7-31,91.1,77.7,65.0,54.3,51.8,48.8,56,42,25,29.79,29.75,5,2,12,0.00
2013-8-1,83.2,65.5,56.4,54.5,49.9,46.8,74,58,37,29.84,29.78,6,2,13,0.00
2013-8-2,95.5,75.7,55.3,55.7,50.5,45.5,83,46,21,29.76,29.66,3,1,11,0.00
2013-8-3,96.0,76.3,56.3,56.1,51.2,46.4,77,46,19,29.76,29.67,3,1,11,0.00
2013-8-4,94.0,70.7,56.2,56.3,53.1,50.0,84,58,23,29.79,29.72,5,1,10,0.00
2013-8-5,94.9,72.3,53.7,56.4,51.4,44.7,93,55,19,29.81,29.70,3,1,10,0.00
2013-8-6,89.9,71.1,54.3,55.8,53.2,50.5,88,58,28,29.82,29.74,4,2,11,0.00
2013-8-7,81.7,67.5,57.5,58.6,55.5,52.9,87,68,38,29.90,29.81,5,3,14,0.00
2013-8-8,88.7,69.8,54.2,57.7,53.7,48.1,92,61,30,29.84,29.70,8,1,10,0.00
2013-8-9,86.3,69.1,54.8,57.5,54.0,49.2,90,62,29,29.78,29.70,11,2,11,0.00
2013-8-10,91.0,71.2,56.0,59.1,55.7,53.1,90,63,28,29.84,29.76,10,1,10,0.00
2013-8-11,93.2,74.1,55.4,59.4,55.3,50.5,90,57,25,29.82,29.70,8,1,8,0.00
2013-8-12,94.8,75.6,56.5,56.5,51.2,43.0,81,48,19,29.79,29.72,8,1,10,0.00
2013-8-13,98.7,78.5,57.1,56.4,51.0,45.8,79,42,20,29.79,29.68,8,0,8,0.00
2013-8-14,99.3,79.0,58.1,57.4,51.5,45.0,75,42,16,29.76,29.66,8,1,10,0.00
2013-8-15,99.4,78.4,58.4,62.0,57.1,51.2,81,52,23,29.76,29.68,7,1,9,0.00
2013-8-16,101.3,81.2,62.4,63.8,57.5,51.9,80,49,21,29.77,29.70,11,1,11,0.00
2013-8-17,99.5,80.0,62.4,61.4,55.2,50.0,67,45,22,29.77,29.62,10,1,12,0.00
2013-8-18,84.2,70.3,64.3,61.0,57.5,55.9,76,65,44,29.69,29.64,4,0,4,0.00
2013-8-19,105.4,87.3,73.2,64.3,61.8,57.0,68,45,25,29.69,29.56,10,1,12,0.00
2013-8-20,98.7,81.7,67.4,65.0,58.5,54.6,69,47,30,29.68,29.57,11,2,12,0.00
2013-8-21,93.7,75.9,62.3,58.5,53.7,45.9,73,49,24,29.72,29.63,11,2,11,0.00
2013-8-22,90.1,72.8,58.3,57.2,53.9,49.6,77,55,28,29.74,29.65,11,2,11,0.00
2013-8-23,92.9,72.2,54.5,58.4,54.0,49.9,89,58,24,29.72,29.57,10,1,10,0.00
2013-8-24,91.1,74.0,60.0,58.2,54.5,50.6,73,53,28,29.68,29.61,12,2,14,0.00
2013-8-25,91.4,73.7,61.0,63.6,59.3,56.7,89,64,34,29.76,29.66,13,1,13,0.00
2013-8-26,91.4,73.6,58.6,60.2,55.5,44.3,92,59,23,29.81,29.68,11,1,11,0.00
2013-8-27,95.3,76.0,57.2,58.2,53.5,50.4,84,50,25,29.71,29.59,8,1,9,0.00
2013-8-28,96.3,77.0,60.5,61.1,55.2,44.8,78,52,20,29.72,29.64,8,1,9,0.00
2013-8-29,95.4,77.0,60.5,62.2,57.3,43.2,86,56,17,29.85,29.72,9,1,9,0.00
2013-8-30,98.2,78.6,58.7,62.5,56.1,50.5,89,51,21,29.84,29.70,8,0,9,0.00
2013-8-31,99.0,79.3,60.7,57.2,52.3,43.8,75,43,19,29.76,29.67,12,1,12,0.00
2013-9-1,95.1,77.2,63.8,58.3,53.9,47.8,71,47,25,29.74,29.66,12,2,12,0.00
2013-9-2,79.8,71.5,65.7,67.8,62.1,58.0,91,73,52,29.77,29.69,9,1,9,0.19
2013-9-3,88.8,73.4,62.0,62.2,56.9,50.3,88,60,30,29.80,29.71,10,1,11,0.00
2013-9-4,91.2,73.2,59.3,59.0,54.6,45.5,83,56,25,29.84,29.72,11,1,11,0.00
2013-9-5,89.3,72.0,57.8,58.2,54.0,46.5,82,57,24,29.81,29.72,12,1,12,0.00
2013-9-6,94.5,74.9,57.3,54.1,50.3,42.4,83,48,18,29.79,29.65,13,1,13,0.00
2013-9-7,100.2,80.9,61.7,55.6,50.4,44.8,66,38,19,29.71,29.60,7,0,8,0.00
2013-9-8,100.7,81.5,61.2,56.8,52.6,48.1,76,41,18,29.66,29.54,11,1,11,0.00
2013-9-9,101.3,82.5,63.6,59.0,52.1,46.7,65,38,20,29.60,29.46,6,0,8,0.00
2013-9-10,92.7,75.2,63.1,60.5,55.9,49.8,81,53,33,29.69,29.49,13,2,13,0.00
2013-9-11,85.3,69.3,59.2,60.8,58.0,56.0,90,70,42,29.80,29.69,11,2,12,0.00
2013-9-12,90.2,72.7,58.5,62.8,58.9,55.3,92,66,35,29.79,29.65,7,1,9,0.00
2013-9-13,93.9,75.2,60.0,63.4,58.5,53.8,87,59,33,29.69,29.51,8,1,8,0.00
2013-9-14,91.4,73.5,59.9,60.0,56.2,53.1,79,57,34,29.60,29.49,8,1,9,0.00
2013-9-15,90.4,71.0,57.1,57.3,53.6,46.8,81,58,24,29.65,29.54,11,2,12,0.00
2013-9-16,89.9,72.4,56.2,60.1,55.6,52.0,89,60,30,29.70,29.56,9,1,9,0.00
2013-9-17,83.3,69.0,56.2,56.1,53.3,48.5,85,60,33,29.68,29.60,13,2,15,0.00
2013-9-18,86.7,69.6,56.2,54.8,49.0,42.6,81,52,23,29.73,29.61,15,2,15,0.00
2013-9-19,93.5,72.6,53.8,52.3,46.4,43.0,74,44,19,29.68,29.55,7,0,7,0.00
2013-9-20,83.3,68.8,54.8,59.8,51.1,41.2,82,55,37,29.68,29.56,16,3,16,0.00
2013-9-21,71.8,61.8,57.3,58.5,56.3,53.2,94,83,55,29.71,29.63,14,1,14,0.30
2013-9-22,76.9,63.1,50.4,55.7,52.2,48.5,96,70,43,29.81,29.71,11,1,11,0.00
2013-9-23,85.3,67.5,51.5,57.4,53.5,48.5,92,64,37,29.84,29.73,9,0,9,0.00
2013-9-24,80.8,67.3,58.7,58.2,53.7,49.3,83,64,36,29.79,29.66,18,2,18,0.00
2013-9-25,74.7,62.8,52.7,52.6,45.7,36.4,88,58,29,29.73,29.62,15,1,15,0.00
2013-9-26,76.5,64.2,48.9,43.0,40.4,35.1,71,44,28,29.78,29.62,23,4,23,0.00
2013-9-27,80.5,63.7,46.8,45.9,40.1,34.2,74,45,20,29.91,29.78,9,1,9,0.00
2013-9-28,86.1,68.0,51.1,46.0,41.6,37.7,75,42,19,29.91,29.80,10,0,10,0.00
2013-9-29,80.2,67.2,56.6,58.6,53.7,40.8,84,63,46,29.93,29.84,13,2,14,0.00
2013-9-30,80.2,68.4,59.7,60.9,58.6,56.0,89,73,50,29.90,29.76,10,1,11,0.00
2013-10-1,80.4,64.9,52.8,57.7,50.6,42.9,91,64,30,29.82,29.73,7,1,8,0.00
2013-10-2,81.4,64.5,51.5,54.7,47.7,41.9,87,59,26,29.81,29.73,9,0,9,0.00
2013-10-3,76.9,64.4,51.0,47.5,36.2,24.7,74,39,15,29.85,29.70,13,4,22,0.00
2013-10-4,84.2,67.0,51.5,40.1,34.4,28.0,62,32,17,29.92,29.80,11,2,15,0.00
2013-10-5,86.3,66.2,47.8,44.7,36.3,28.8,62,36,16,30.03,29.92,5,0,8,0.00
2013-10-6,88.4,68.7,51.6,44.2,38.4,31.5,53,36,14,29.96,29.82,5,0,6,0.00
2013-10-7,88.6,69.0,50.6,45.5,38.3,34.2,64,35,16,29.82,29.67,5,0,8,0.00
2013-10-8,76.7,62.9,49.9,45.8,40.5,35.7,66,46,26,29.70,29.48,7,1,11,0.00
2013-10-9,74.8,61.6,49.7,44.6,41.7,37.9,68,50,32,29.57,29.40,12,1,12,0.00
2013-10-10,74.2,61.0,50.2,48.0,44.4,41.8,76,56,35,29.81,29.57,14,2,14,0.00
2013-10-11,78.8,62.1,46.7,49.2,45.4,41.8,85,57,32,29.89,29.78,8,0,8,0.00
2013-10-12,79.3,61.9,47.2,48.6,44.5,41.7,84,56,29,29.81,29.68,11,1,11,0.00
2013-10-13,76.6,61.1,49.1,49.7,44.7,41.1,88,58,31,29.86,29.71,11,1,12,0.00
2013-10-14,78.7,61.9,45.2,46.0,41.8,38.7,84,52,25,29.94,29.83,7,0,8,0.00
2013-10-15,83.1,63.9,50.2,43.4,39.2,36.5,67,44,20,29.86,29.76,10,1,11,0.00
2013-10-16,54.9,53.0,51.0,40.0,38.2,33.8,63,57,48,29.84,29.80,2,0,4,0.00
2013-10-17,82.5,65.1,48.7,44.4,40.1,37.2,73,43,21,29.90,29.78,3,0,10,0.00
2013-10-18,85.6,64.6,46.7,46.0,40.4,36.8,73,44,21,29.87,29.78,4,0,10,0.00
2013-10-19,86.8,67.0,48.0,46.0,41.7,38.2,74,43,21,29.90,29.81,6,0,6,0.00
2013-10-20,85.6,66.1,49.8,45.4,41.1,35.7,63,42,23,29.83,29.71,6,0,6,0.00
2013-10-21,85.8,66.1,50.5,49.4,44.0,39.2,67,48,24,29.81,29.72,6,0,8,0.00
2013-10-22,86.0,66.1,48.6,46.8,41.7,36.4,68,44,22,29.83,29.72,8,0,8,0.00
2013-10-23,85.0,64.9,46.9,43.8,39.0,34.7,70,42,19,29.75,29.67,7,0,7,0.00
2013-10-24,75.4,57.9,46.3,49.8,44.9,35.1,87,64,39,29.89,29.73,5,0,7,0.00
2013-10-25,54.9,47.9,45.1,47.1,43.7,41.7,91,85,75,29.98,29.89,5,0,5,0.00
2013-10-26,81.3,62.8,48.5,47.8,43.8,37.4,76,53,29,29.97,29.83,3,0,9,0.00
2013-10-27,75.5,58.0,45.9,49.8,43.6,38.3,76,61,34,29.83,29.41,8,3,20,0.00
2013-10-28,63.4,56.1,46.5,46.6,43.4,40.3,90,64,43,29.67,29.41,10,2,13,0.00
2013-10-29,66.8,57.5,49.8,47.8,45.3,42.8,79,65,47,29.86,29.67,9,1,9,0.00
2013-10-30,68.8,54.9,41.6,45.3,42.2,37.6,88,65,37,29.97,29.86,10,0,10,0.00
2013-10-31,73.2,55.9,42.1,45.6,42.4,38.2,89,64,36,30.00,29.90,8,0,10,0.00
2013-11-1,78.3,59.7,46.6,47.5,43.2,39.5,78,57,30,30.00,29.83,6,0,7,0.00
2013-11-2,78.1,60.6,46.5,48.3,42.9,36.6,73,55,31,29.84,29.69,8,1,8,0.00
2013-11-3,60.6,52.2,44.7,40.4,34.9,30.6,62,52,33,29.84,29.75,15,3,15,0.00
2013-11-4,68.5,55.3,36.4,39.1,32.0,26.0,83,45,25,29.88,29.70,20,3,20,0.00
2013-11-5,71.1,54.7,39.2,36.1,32.8,25.7,71,46,26,30.06,29.86,6,0,8,0.00
2013-11-6,75.5,59.3,46.4,41.4,37.5,34.6,65,46,25,30.09,30.00,6,0,7,0.00
2013-11-7,80.2,61.1,48.3,42.1,38.7,34.7,72,46,22,30.00,29.87,7,0,7,0.00
2013-11-8,77.8,60.0,47.0,44.4,38.2,32.0,64,47,26,29.89,29.77,6,0,6,0.00
2013-11-9,78.1,59.9,45.3,45.7,41.7,37.2,74,53,29,29.86,29.80,6,0,6,0.00
2013-11-10,77.5,56.1,45.1,44.0,40.7,37.0,78,59,29,29.92,29.84,5,0,8,0.00
2013-11-11,75.5,56.4,41.6,42.8,39.4,35.6,86,57,25,30.00,29.90,5,0,6,0.00
2013-11-12,72.9,60.6,51.8,45.3,41.2,35.7,68,50,33,30.08,29.96,7,0,7,0.00
2013-11-13,52.6,51.6,48.3,39.8,39.0,38.2,68,62,60,30.06,30.03,4,0,5,0.00
2013-11-14,69.1,57.7,48.1,47.2,43.5,40.0,85,61,41,29.91,29.65,8,0,8,0.00
2013-11-15,68.6,53.0,40.6,46.8,38.6,33.0,93,62,30,29.65,29.52,12,1,12,0.00
2013-11-16,65.2,51.8,42.5,43.2,38.3,33.3,76,61,42,29.74,29.56,10,1,10,0.00
2013-11-17,62.9,46.1,39.8,48.4,39.5,36.0,88,78,60,29.89,29.74,6,0,8,0.00
2013-11-18,65.7,53.4,41.8,48.1,44.1,38.6,92,72,50,29.97,29.88,7,1,8,0.00
2013-11-19,62.7,55.6,50.5,52.8,49.5,44.9,94,80,65,29.94,29.78,9,0,9,0.49
2013-11-20,56.4,54.4,52.3,55.3,53.2,51.1,97,96,93,29.79,29.67,10,1,13,0.42
2013-11-21,67.0,55.5,46.5,52.3,41.5,28.1,97,65,29,29.82,29.69,16,3,19,0.12
2013-11-22,71.7,55.6,44.8,44.1,28.8,13.7,90,43,12,29.86,29.74,18,2,22,0.00
2013-11-23,56.6,45.5,40.4,47.7,42.4,38.3,95,89,71,29.90,29.83,5,0,6,0.00
2013-11-24,66.4,51.4,40.6,45.8,41.4,35.7,86,70,46,30.07,29.93,2,0,7,0.00
2013-11-25,67.9,51.3,40.8,45.2,41.5,36.6,94,71,42,30.16,30.07,2,0,7,0.00
2013-11-26,65.5,50.7,40.9,46.8,42.9,38.0,90,76,49,30.10,29.88,6,0,8,0.00
2013-11-27,66.7,52.8,43.4,47.4,43.3,39.5,89,72,46,29.88,29.69,6,0,6,0.00
2013-11-28,72.4,55.4,45.1,44.9,40.9,37.5,85,61,34,29.89,29.70,7,0,7,0.00
2013-11-29,64.5,49.9,43.9,44.3,39.4,37.2,77,68,45,30.00,29.88,6,0,6,0.00
2013-11-30,69.2,55.4,44.0,44.5,41.9,38.0,82,63,38,30.09,30.00,7,0,8,0.00
2013-12-1,70.3,52.6,42.2,45.6,41.7,37.1,84,68,40,30.17,30.05,6,0,7,0.00
2013-12-2,69.0,51.7,43.7,47.2,43.2,39.2,87,74,45,30.05,29.74,12,1,15,0.00
2013-12-3,55.8,49.2,37.4,51.5,34.9,22.7,91,61,28,29.74,29.64,10,2,13,0.00
2013-12-4,51.1,37.9,28.5,27.4,23.0,19.6,83,57,30,29.89,29.73,7,0,8,0.00
2013-12-5,51.2,35.0,24.5,29.9,22.8,17.9,88,64,28,29.99,29.88,7,0,7,0.00
2013-12-6,48.4,39.1,28.1,35.7,28.6,20.5,90,67,46,30.02,29.75,20,3,20,0.35
2013-12-7,48.6,38.0,30.9,38.2,32.9,27.2,92,82,58,30.06,29.73,15,2,17,0.11
2013-12-8,45.1,34.3,25.9,30.3,25.8,23.1,92,72,49,30.14,30.05,9,1,10,0.00
2013-12-9,50.2,35.6,24.5,30.7,26.0,21.8,91,71,41,30.26,30.12,7,0,7,0.00
2013-12-10,55.3,41.4,27.4,33.2,28.5,24.0,89,63,33,30.26,30.04,6,0,6,0.00
2013-12-11,58.2,43.8,33.3,37.0,31.9,27.8,84,65,39,30.09,30.02,7,0,9,0.00
2013-12-12,63.2,44.8,30.8,35.7,31.5,26.5,85,63,33,30.10,29.99,6,0,7,0.00
2013-12-13,59.9,45.8,33.7,34.3,30.6,26.5,79,58,35,30.14,30.04,9,1,10,0.00
2013-12-14,63.4,48.0,37.7,36.0,33.1,29.5,75,58,35,30.24,30.14,2,1,8,0.00
2013-12-15,65.0,48.9,33.3,38.3,34.9,28.5,86,61,36,30.20,30.07,6,0,6,0.00
2013-12-16,66.8,48.3,36.1,41.4,36.9,31.7,92,67,39,30.08,29.97,5,0,5,0.00
2013-12-17,64.7,50.1,39.8,42.8,39.2,34.5,84,68,41,30.02,29.85,5,0,6,0.00
2013-12-18,62.6,51.1,43.6,45.7,42.1,38.8,86,72,49,29.86,29.54,6,0,6,0.00
2013-12-19,61.4,49.2,41.0,45.6,35.2,24.5,91,62,31,29.71,29.49,20,3,20,0.00
2013-12-20,59.4,44.2,30.7,34.9,28.5,21.9,80,57,24,29.83,29.71,6,0,6,0.00
2013-12-21,60.1,46.6,38.0,39.0,34.7,31.7,79,65,40,29.93,29.79,8,1,9,0.00
2013-12-22,63.7,47.8,37.8,39.7,36.1,32.2,82,66,40,30.12,29.93,6,0,6,0.00
2013-12-23,62.2,45.2,40.1,41.9,36.8,35.1,84,74,47,30.24,30.12,6,1,7,0.00
2013-12-24,67.3,49.6,38.6,41.8,38.6,34.7,92,68,39,30.15,30.03,1,0,6,0.00
2013-12-25,65.6,49.6,40.1,43.4,38.2,33.1,88,67,43,30.13,30.02,3,1,8,0.00
2013-12-26,70.3,49.7,37.1,40.9,34.3,29.0,76,57,29,30.09,30.00,6,0,7,0.00
2013-12-27,62.1,48.2,39.7,39.0,34.8,29.7,82,61,37,30.08,29.94,7,0,7,0.00
2013-12-28,65.8,48.2,33.4,35.3,32.5,27.3,82,58,30,29.96,29.83,16,1,16,0.00
2013-12-29,66.6,48.8,36.6,39.5,34.2,29.1,75,59,33,30.02,29.91,6,0,6,0.00
2013-12-30,67.8,49.5,36.6,40.4,34.9,29.1,79,59,31,30.08,30.02,6,0,6,0.00
2013-12-31,65.2,49.5,39.7,38.9,34.1,31.8,74,57,32,30.09,29.97,7,0,8,0.00
2014-1-1,66.7,48.7,37.0,37.7,33.6,30.1,79,59,31,30.05,29.95,6,0,6,0.00
2014-1-2,67.3,50.6,38.5,40.5,36.8,32.1,80,61,36,30.01,29.88,6,0,6,0.00